TimeEDT,TemperatureF,Dew PointF,Humidity,Sea Level PressureIn,VisibilityMPH,Wind Direction,Wind SpeedMPH,Gust SpeedMPH,PrecipitationIn,Events,Conditions,WindDirDegrees,DateUTC
12:51 AM,53.1,51.1,93,30.16,10.0,Calm,Calm,-,N/A,,Clear,0,2013-08-05 04:51:00
1:51 AM,52.0,50.0,93,30.15,10.0,Calm,Calm,-,N/A,,Clear,0,2013-08-05 05:51:00
2:51 AM,52.0,50.0,93,30.15,10.0,Calm,Calm,-,N/A,,Clear,0,2013-08-05 06:51:00
3:51 AM,51.1,48.9,92,30.16,10.0,Calm,Calm,-,N/A,,Clear,0,2013-08-05 07:51:00
4:31 AM,50.0,48.2,94,30.17,10.0,Calm,Calm,-,N/A,,Partly Cloudy,0,2013-08-05 08:31:00
4:51 AM,48.9,46.9,93,30.16,1.2,Calm,Calm,-,N/A,,Mostly Cloudy,0,2013-08-05 08:51:00
5:04 AM,50.0,48.2,94,30.16,0.5,Calm,Calm,-,N/A,Fog,Fog,0,2013-08-05 09:04:00
5:51 AM,51.1,50.0,96,30.16,0.8,Calm,Calm,-,N/A,,Mist,0,2013-08-05 09:51:00
6:10 AM,51.8,50.0,94,30.17,1.0,Calm,Calm,-,N/A,,Mist,0,2013-08-05 10:10:00
6:18 AM,51.8,50.0,94,30.17,0.5,Calm,Calm,-,N/A,Fog,Fog,0,2013-08-05 10:18:00
6:37 AM,51.8,50.0,94,30.17,0.2,Calm,Calm,-,N/A,Fog,Fog,0,2013-08-05 10:37:00
6:51 AM,51.1,50.0,96,30.17,0.2,Calm,Calm,-,N/A,Fog,Fog,0,2013-08-05 10:51:00
7:04 AM,50.0,50.0,100,30.18,0.5,Calm,Calm,-,N/A,Fog,Fog,0,2013-08-05 11:04:00
7:51 AM,51.1,50.0,96,30.17,0.8,Calm,Calm,-,N/A,,Mist,0,2013-08-05 11:51:00
8:09 AM,51.8,50.0,94,30.17,1.2,Calm,Calm,-,N/A,,Overcast,0,2013-08-05 12:09:00
8:19 AM,51.8,51.8,100,30.18,3.0,Calm,Calm,-,N/A,,Overcast,0,2013-08-05 12:19:00
8:51 AM,53.1,52.0,96,30.19,10.0,Calm,Calm,-,N/A,,Overcast,0,2013-08-05 12:51:00
9:40 AM,57.2,53.6,88,30.18,10.0,Calm,Calm,-,N/A,,Scattered Clouds,0,2013-08-05 13:40:00
9:51 AM,59.0,54.0,83,30.19,10.0,Calm,Calm,-,N/A,,Partly Cloudy,0,2013-08-05 13:51:00
10:51 AM,66.9,55.0,66,30.18,10.0,Calm,Calm,-,N/A,,Clear,0,2013-08-05 14:51:00
11:51 AM,72.0,54.0,53,30.15,10.0,North,4.6,-,N/A,,Mostly Cloudy,350,2013-08-05 15:51:00
12:51 PM,71.1,50.0,47,30.13,10.0,Calm,Calm,-,N/A,,Scattered Clouds,0,2013-08-05 16:51:00
1:51 PM,73.9,52.0,46,30.11,10.0,NW,8.1,-,N/A,,Partly Cloudy,320,2013-08-05 17:51:00
2:51 PM,75.0,52.0,44,30.09,10.0,NW,5.8,-,N/A,,Partly Cloudy,310,2013-08-05 18:51:00
3:51 PM,75.0,52.0,44,30.07,10.0,WNW,5.8,-,N/A,,Clear,300,2013-08-05 19:51:00
4:47 PM,91.4,53.6,28,29.93,30.0,WSW,9.2,-,N/A,,Mostly Cloudy,250,2013-08-05 20:47:00
4:51 PM,72.0,52.0,49,30.07,10.0,North,4.6,-,N/A,,Partly Cloudy,360,2013-08-05 20:51:00
5:51 PM,73.9,54.0,50,30.09,10.0,NNW,5.8,-,N/A,,Mostly Cloudy,340,2013-08-05 21:51:00
6:51 PM,71.1,54.0,55,30.09,10.0,North,4.6,-,N/A,,Clear,350,2013-08-05 22:51:00
7:51 PM,66.9,55.0,66,30.10,10.0,Calm,Calm,-,N/A,,Partly Cloudy,0,2013-08-05 23:51:00
8:51 PM,64.0,55.0,73,30.07,10.0,Calm,Calm,-,N/A,,Clear,0,2013-08-06 00:51:00
9:51 PM,62.1,55.9,80,30.09,10.0,Calm,Calm,-,N/A,,Overcast,0,2013-08-06 01:51:00
10:51 PM,61.0,57.0,87,30.08,10.0,Calm,Calm,-,N/A,,Mostly Cloudy,0,2013-08-06 02:51:00
11:51 PM,61.0,55.9,83,30.05,10.0,Calm,Calm,-,N/A,,Overcast,0,2013-08-06 03:51:00